Time,TemperatureF,DewpointF,PressureIn,WindDirection,WindDirectionDegrees,WindSpeedMPH,WindSpeedGustMPH,Humidity,HourlyPrecipIn,Conditions,Clouds,dailyrainin,SoftwareType,DateUTC
2013-08-28 00:08:00,78.2,73.0,29.83,SE,140,0.0,4.0,84,0.00,,,0.00,weatherlink.com 1.10,2013-08-28 04:08:00,
2013-08-28 00:23:00,77.7,73.0,29.83,NW,311,0.0,5.0,85,0.00,,,0.00,weatherlink.com 1.10,2013-08-28 04:23:00,
2013-08-28 00:38:00,77.5,73.0,29.82,SE,125,0.0,4.0,85,0.00,,,0.00,weatherlink.com 1.10,2013-08-28 04:38:00,
2013-08-28 00:53:00,77.5,72.0,29.82,WSW,248,0.0,4.0,84,0.00,,,0.00,weatherlink.com 1.10,2013-08-28 04:53:00,
2013-08-28 01:08:00,77.5,72.0,29.82,West,261,0.0,5.0,84,0.00,,,0.00,weatherlink.com 1.10,2013-08-28 05:08:00,
2013-08-28 01:23:00,77.4,72.0,29.82,WSW,244,0.0,5.0,84,0.00,,,0.00,weatherlink.com 1.10,2013-08-28 05:23:00,
2013-08-28 01:38:00,77.1,72.0,29.82,South,172,0.0,4.0,84,0.00,,,0.00,weatherlink.com 1.10,2013-08-28 05:38:00,
2013-08-28 01:53:00,76.8,72.0,29.82,SSW,207,0.0,4.0,85,0.00,,,0.00,weatherlink.com 1.10,2013-08-28 05:53:00,
2013-08-28 02:08:00,76.7,72.0,29.83,SW,236,1.0,6.0,85,0.00,,,0.00,weatherlink.com 1.10,2013-08-28 06:08:00,
2013-08-28 02:23:00,76.6,72.0,29.82,South,184,0.0,5.0,84,0.00,,,0.00,weatherlink.com 1.10,2013-08-28 06:23:00,
2013-08-28 02:38:00,77.0,71.0,29.81,SSW,203,1.0,6.0,81,0.00,,,0.00,weatherlink.com 1.10,2013-08-28 06:38:00,
2013-08-28 02:53:00,77.7,71.0,29.81,NW,306,3.0,7.0,79,0.00,,,0.00,weatherlink.com 1.10,2013-08-28 06:53:00,
2013-08-28 03:08:00,77.8,71.0,29.81,NW,317,0.0,7.0,79,0.00,,,0.00,weatherlink.com 1.10,2013-08-28 07:08:00,
2013-08-28 03:23:00,77.9,71.0,29.80,SSE,147,3.0,11.0,78,0.00,,,0.00,weatherlink.com 1.10,2013-08-28 07:23:00,
2013-08-28 03:38:00,78.0,70.0,29.80,WSW,254,3.0,8.0,77,0.00,,,0.00,weatherlink.com 1.10,2013-08-28 07:38:00,
2013-08-28 03:53:00,78.1,70.0,29.80,NW,316,1.0,8.0,76,0.00,,,0.00,weatherlink.com 1.10,2013-08-28 07:53:00,
2013-08-28 04:08:00,78.2,70.0,29.81,SE,126,1.0,7.0,75,0.00,,,0.00,weatherlink.com 1.10,2013-08-28 08:08:00,
2013-08-28 04:23:00,78.2,70.0,29.81,SW,229,5.0,9.0,75,0.00,,,0.00,weatherlink.com 1.10,2013-08-28 08:23:00,
2013-08-28 04:38:00,77.7,70.0,29.80,WNW,284,3.0,7.0,76,0.00,,,0.00,weatherlink.com 1.10,2013-08-28 08:38:00,
2013-08-28 04:53:00,77.4,70.0,29.81,West,268,7.0,9.0,77,0.00,,,0.00,weatherlink.com 1.10,2013-08-28 08:53:00,
2013-08-28 05:08:00,77.1,69.0,29.80,SW,221,3.0,5.0,77,0.00,,,0.00,weatherlink.com 1.10,2013-08-28 09:08:00,
2013-08-28 05:23:00,76.8,69.0,29.80,WNW,302,1.0,8.0,77,0.00,,,0.00,weatherlink.com 1.10,2013-08-28 09:23:00,
2013-08-28 05:38:00,76.4,69.0,29.81,ESE,117,0.0,6.0,78,0.00,,,0.00,weatherlink.com 1.10,2013-08-28 09:38:00,
2013-08-28 05:53:00,76.1,69.0,29.81,West,281,1.0,8.0,79,0.00,,,0.00,weatherlink.com 1.10,2013-08-28 09:53:00,
2013-08-28 06:08:00,75.8,69.0,29.81,WNW,285,2.0,6.0,79,0.00,,,0.00,weatherlink.com 1.10,2013-08-28 10:08:00,
2013-08-28 06:23:00,75.5,69.0,29.81,WSW,244,4.0,7.0,80,0.00,,,0.00,weatherlink.com 1.10,2013-08-28 10:23:00,
2013-08-28 06:38:00,75.2,69.0,29.81,NW,311,2.0,6.0,81,0.00,,,0.00,weatherlink.com 1.10,2013-08-28 10:38:00,
2013-08-28 06:53:00,74.9,69.0,29.81,WSW,248,7.0,8.0,81,0.00,,,0.00,weatherlink.com 1.10,2013-08-28 10:53:00,
2013-08-28 07:08:00,74.8,69.0,29.80,NW,318,1.0,6.0,81,0.00,,,0.00,weatherlink.com 1.10,2013-08-28 11:08:00,
2013-08-28 07:23:00,74.8,69.0,29.81,WSW,250,0.0,5.0,82,0.00,,,0.00,weatherlink.com 1.10,2013-08-28 11:23:00,
2013-08-28 07:38:00,74.7,69.0,29.81,NW,311,2.0,6.0,82,0.00,,,0.00,weatherlink.com 1.10,2013-08-28 11:38:00,
2013-08-28 07:53:00,75.0,69.0,29.81,NW,321,2.0,8.0,82,0.00,,,0.00,weatherlink.com 1.10,2013-08-28 11:53:00,
2013-08-28 08:08:00,75.4,69.0,29.81,NNE,22,0.0,7.0,81,0.00,,,0.00,weatherlink.com 1.10,2013-08-28 12:08:00,
2013-08-28 08:23:00,75.8,70.0,29.81,NW,316,5.0,10.0,81,0.00,,,0.00,weatherlink.com 1.10,2013-08-28 12:23:00,
2013-08-28 08:38:00,76.1,70.0,29.82,NW,304,3.0,7.0,80,0.00,,,0.00,weatherlink.com 1.10,2013-08-28 12:38:00,
2013-08-28 08:53:00,76.6,70.0,29.81,WNW,298,0.0,11.0,79,0.00,,,0.00,weatherlink.com 1.10,2013-08-28 12:53:00,
2013-08-28 09:08:00,77.3,70.0,29.82,WNW,288,0.0,10.0,78,0.00,,,0.00,weatherlink.com 1.10,2013-08-28 13:08:00,
2013-08-28 09:23:00,77.9,71.0,29.82,WNW,296,5.0,9.0,79,0.00,,,0.00,weatherlink.com 1.10,2013-08-28 13:23:00,
2013-08-28 09:38:00,78.4,71.0,29.82,NW,325,4.0,11.0,78,0.00,,,0.00,weatherlink.com 1.10,2013-08-28 13:38:00,
2013-08-28 09:53:00,79.1,72.0,29.82,WNW,288,7.0,11.0,79,0.00,,,0.00,weatherlink.com 1.10,2013-08-28 13:53:00,
2013-08-28 10:08:00,79.5,72.0,29.82,WNW,293,2.0,10.0,78,0.00,,,0.00,weatherlink.com 1.10,2013-08-28 14:08:00,
2013-08-28 10:23:00,79.9,73.0,29.83,WNW,287,2.0,11.0,78,0.00,,,0.00,weatherlink.com 1.10,2013-08-28 14:23:00,
2013-08-28 10:38:00,80.7,74.0,29.83,WNW,302,8.0,12.0,79,0.00,,,0.00,weatherlink.com 1.10,2013-08-28 14:38:00,
2013-08-28 10:53:00,81.5,74.0,29.84,NW,310,8.0,12.0,79,0.00,,,0.00,weatherlink.com 1.10,2013-08-28 14:53:00,
2013-08-28 11:08:00,81.9,75.0,29.84,WNW,302,6.0,9.0,79,0.00,,,0.00,weatherlink.com 1.10,2013-08-28 15:08:00,
2013-08-28 11:23:00,82.0,75.0,29.84,NW,309,8.0,12.0,78,0.00,,,0.00,weatherlink.com 1.10,2013-08-28 15:23:00,
2013-08-28 11:39:00,82.0,75.0,29.84,NW,308,8.0,13.0,79,0.00,,,0.00,weatherlink.com 1.10,2013-08-28 15:39:00,
2013-08-28 11:54:00,81.1,75.0,29.85,NNW,339,5.0,12.0,81,0.00,,,0.00,weatherlink.com 1.10,2013-08-28 15:54:00,
2013-08-28 12:09:00,80.3,74.0,29.85,NNW,329,4.0,11.0,82,0.00,,,0.00,weatherlink.com 1.10,2013-08-28 16:09:00,
2013-08-28 12:24:00,80.3,75.0,29.86,NNW,334,4.0,9.0,84,0.00,,,0.00,weatherlink.com 1.10,2013-08-28 16:24:00,
2013-08-28 12:39:00,80.8,75.0,29.85,WNW,302,5.0,9.0,83,0.00,,,0.00,weatherlink.com 1.10,2013-08-28 16:39:00,
2013-08-28 12:54:00,81.1,76.0,29.85,NW,304,2.0,8.0,84,0.00,,,0.00,weatherlink.com 1.10,2013-08-28 16:54:00,
2013-08-28 13:09:00,81.7,76.0,29.85,WNW,282,5.0,9.0,83,0.00,,,0.00,weatherlink.com 1.10,2013-08-28 17:09:00,
2013-08-28 13:24:00,83.0,77.0,29.85,NW,307,6.0,8.0,83,0.00,,,0.00,weatherlink.com 1.10,2013-08-28 17:24:00,
2013-08-28 13:39:00,82.7,77.0,29.85,NW,304,6.0,7.0,82,0.00,,,0.00,weatherlink.com 1.10,2013-08-28 17:39:00,
2013-08-28 14:24:00,82.4,76.0,29.86,NW,304,7.0,11.0,81,0.00,,,0.00,weatherlink.com 1.10,2013-08-28 18:24:00,
2013-08-28 14:39:00,82.5,76.0,29.86,NW,309,4.0,9.0,81,0.00,,,0.00,weatherlink.com 1.10,2013-08-28 18:39:00,
2013-08-28 14:54:00,83.5,76.0,29.86,NW,307,4.0,9.0,79,0.00,,,0.00,weatherlink.com 1.10,2013-08-28 18:54:00,
2013-08-28 15:09:00,83.5,76.0,29.86,WNW,302,2.0,10.0,78,0.00,,,0.00,weatherlink.com 1.10,2013-08-28 19:09:00,
2013-08-28 15:24:00,83.6,78.0,29.86,NW,308,3.0,7.0,82,0.00,,,0.00,weatherlink.com 1.10,2013-08-28 19:24:00,
2013-08-28 15:39:00,84.9,77.0,29.86,NW,317,8.0,11.0,78,0.00,,,0.00,weatherlink.com 1.10,2013-08-28 19:39:00,
2013-08-28 15:54:00,84.2,76.0,29.85,NW,324,4.0,11.0,75,0.00,,,0.00,weatherlink.com 1.10,2013-08-28 19:54:00,
2013-08-28 16:09:00,84.7,76.0,29.86,WNW,302,4.0,12.0,74,0.00,,,0.00,weatherlink.com 1.10,2013-08-28 20:09:00,
2013-08-28 16:24:00,84.1,76.0,29.86,NW,311,4.0,8.0,77,0.00,,,0.00,weatherlink.com 1.10,2013-08-28 20:24:00,
2013-08-28 16:39:00,84.1,76.0,29.86,North,349,3.0,9.0,76,0.00,,,0.00,weatherlink.com 1.10,2013-08-28 20:39:00,
2013-08-28 16:54:00,84.3,75.0,29.86,WNW,296,5.0,8.0,73,0.00,,,0.00,weatherlink.com 1.10,2013-08-28 20:54:00,
2013-08-28 17:09:00,84.1,76.0,29.87,NNW,334,5.0,9.0,76,0.00,,,0.00,weatherlink.com 1.10,2013-08-28 21:09:00,
2013-08-28 17:24:00,84.0,76.0,29.87,North,351,3.0,9.0,76,0.00,,,0.00,weatherlink.com 1.10,2013-08-28 21:24:00,
2013-08-28 17:39:00,84.6,76.0,29.87,North,350,3.0,7.0,75,0.00,,,0.00,weatherlink.com 1.10,2013-08-28 21:39:00,
2013-08-28 17:54:00,84.2,76.0,29.87,NNE,19,3.0,10.0,75,0.00,,,0.00,weatherlink.com 1.10,2013-08-28 21:54:00,
2013-08-28 18:09:00,83.7,75.0,29.88,North,360,4.0,10.0,74,0.00,,,0.00,weatherlink.com 1.10,2013-08-28 22:09:00,
2013-08-28 18:24:00,83.4,75.0,29.87,NNW,327,6.0,9.0,75,0.00,,,0.00,weatherlink.com 1.10,2013-08-28 22:24:00,
2013-08-28 18:39:00,82.4,74.0,29.87,North,5,2.0,8.0,76,0.00,,,0.00,weatherlink.com 1.10,2013-08-28 22:39:00,
2013-08-28 18:54:00,81.8,74.0,29.88,NNW,333,5.0,7.0,77,0.00,,,0.00,weatherlink.com 1.10,2013-08-28 22:54:00,
2013-08-28 19:09:00,82.1,74.0,29.88,North,355,4.0,6.0,76,0.00,,,0.00,weatherlink.com 1.10,2013-08-28 23:09:00,
2013-08-28 19:24:00,80.8,73.0,29.89,NNW,348,2.0,8.0,78,0.00,,,0.00,weatherlink.com 1.10,2013-08-28 23:24:00,
2013-08-28 19:39:00,79.8,74.0,29.89,North,360,2.0,5.0,81,0.00,,,0.00,weatherlink.com 1.10,2013-08-28 23:39:00,
2013-08-28 19:54:00,79.0,73.0,29.89,NNW,327,5.0,7.0,81,0.00,,,0.00,weatherlink.com 1.10,2013-08-28 23:54:00,
2013-08-28 20:09:00,78.2,73.0,29.89,North,5,0.0,4.0,83,0.00,,,0.00,weatherlink.com 1.10,2013-08-29 00:09:00,
2013-08-28 20:24:00,77.3,73.0,29.90,North,5,0.0,5.0,85,0.00,,,0.00,weatherlink.com 1.10,2013-08-29 00:24:00,
2013-08-28 20:39:00,76.1,72.0,29.91,North,5,0.0,3.0,87,0.00,,,0.00,weatherlink.com 1.10,2013-08-29 00:39:00,
2013-08-28 20:55:00,75.5,72.0,29.91,NNW,327,3.0,4.0,88,0.00,,,0.00,weatherlink.com 1.10,2013-08-29 00:55:00,
2013-08-28 21:10:00,76.2,72.0,29.92,North,355,1.0,6.0,86,0.00,,,0.00,weatherlink.com 1.10,2013-08-29 01:10:00,
2013-08-28 21:25:00,75.8,72.0,29.93,North,350,0.0,4.0,87,0.00,,,0.00,weatherlink.com 1.10,2013-08-29 01:25:00,
2013-08-28 21:40:00,75.3,72.0,29.93,NW,314,2.0,6.0,88,0.00,,,0.00,weatherlink.com 1.10,2013-08-29 01:40:00,
2013-08-28 21:55:00,74.6,71.0,29.93,NW,316,1.0,3.0,89,0.00,,,0.00,weatherlink.com 1.10,2013-08-29 01:55:00,
2013-08-28 22:10:00,74.0,71.0,29.94,NW,316,0.0,3.0,90,0.00,,,0.00,weatherlink.com 1.10,2013-08-29 02:10:00,
2013-08-28 22:25:00,73.4,71.0,29.94,NW,316,2.0,2.0,92,0.00,,,0.00,weatherlink.com 1.10,2013-08-29 02:25:00,
2013-08-28 22:40:00,73.1,71.0,29.95,NW,316,1.0,3.0,92,0.00,,,0.00,weatherlink.com 1.10,2013-08-29 02:40:00,
2013-08-28 22:55:00,72.7,71.0,29.95,NW,316,0.0,3.0,93,0.00,,,0.00,weatherlink.com 1.10,2013-08-29 02:55:00,
2013-08-28 23:10:00,72.6,71.0,29.95,NW,316,0.0,3.0,93,0.00,,,0.00,weatherlink.com 1.10,2013-08-29 03:10:00,
2013-08-28 23:25:00,72.4,71.0,29.95,NW,316,0.0,2.0,94,0.00,,,0.00,weatherlink.com 1.10,2013-08-29 03:25:00,
2013-08-28 23:40:00,72.3,71.0,29.96,NW,316,0.0,1.0,94,0.00,,,0.00,weatherlink.com 1.10,2013-08-29 03:40:00,
2013-08-28 23:55:00,72.1,70.0,29.96,NW,316,0.0,1.0,94,0.00,,,0.00,weatherlink.com 1.10,2013-08-29 03:55:00,